Regional Weather Roundup
Issued by NWS Northern Indiana

Home | Current Version | Previous Version | Graphics & Text | Print | Product List | Glossary On
Versions: 1 2 3 4 5 6 7 8 9 10 11 12 13 14 15 16 17 18 19 20 21 22 23 24 25 26 27 28 29 30 31 32 33 34 35 36 37 38 39 40 41 42 43 44 45 46 47 48 49 50
000
ASUS43 KIWX 280500
RWRIWX

KIWX WEATHER ROUNDUP
NATIONAL WEATHER SERVICE NORTHERN INDIANA
100 AM EDT THU JUL 28 2016

NOTE: "FAIR" INDICATES FEW OR NO CLOUDS BELOW 12,000 FEET WITH NO
SIGNIFICANT WEATHER AND/OR OBSTRUCTIONS TO VISIBILITY.

* THESE STATIONS ARE NOT UNDER NWS QUALITY CONTROL. THEY ALSO MAY NOT
  REPORT WEATHER SUCH AS PRECIPITATION OR FOG.

INZ001>027-280600-
NORTHERN INDIANA

CITY           SKY/WX    TMP DP  RH WIND       PRES   REMARKS
KNOX*          MOCLDY    70  66  88 CALM      29.95F
SOUTH BEND     CLEAR     74  67  78 E5        29.95F
GOSHEN         CLEAR     73  63  70 CALM      29.96F
MONTICELLO*    CLEAR     68  64  88 NW3       29.95S
ANGOLA*        CLEAR     70  63  78 CALM      29.97F
FORT WAYNE     PTCLDY    69  64  84 CALM      29.96S

$$
INZ028>050-280600-
CENTRAL INDIANA

CITY           SKY/WX    TMP DP  RH WIND       PRES   REMARKS
LAFAYETTE      PTCLDY    69  68  96 CALM      29.95S
KOKOMO*        MOCLDY    72  64  78 CALM      29.96F
MUNCIE*        CLOUDY    73  67  81 CALM      29.96F
INDIANAPOLIS   CLOUDY    80  65  59 NE5       29.96R

$$
MIZ043>046-050>051-056>058-064>065-071>073-077>080-280600-
SOUTHWEST LOWER MICHIGAN

CITY           SKY/WX    TMP DP  RH WIND       PRES   REMARKS
BATTLE CREEK   CLEAR     68  64  87 CALM      29.97F
BENTON HARBOR  PTCLDY    71  65  81 E3        29.93F
COLDWATER*     CLEAR     67  66  97 CALM      29.96F
HILLSDALE*     CLEAR     65  62  91 CALM      29.97F
HOLLAND        PTCLDY    69  65  86 CALM      29.95F
GRAND RAPIDS   PTCLDY    70  63  78 SE3       29.96F
KALAMAZOO      CLEAR     70  63  78 CALM      29.95F
STURGIS*       CLEAR     67  64  88 NE3       29.96F
THREE RIVERS*  FAIR      70  65  83 CALM      29.96F

$$
OHZ001>008-015>018-024>025-280600-
NORTHWEST OHIO

CITY           SKY/WX    TMP DP  RH WIND       PRES   REMARKS
DEFIANCE       PTCLDY    75  65  70 NE3       29.95R
FINDLAY        CLOUDY    71  62  73 S5        29.94S
TOLEDO METCALF PTCLDY    75  65  70 CALM      29.95S
LIMA           CLEAR     70  66  87 CALM      29.95F

$$
AND FOR LAKE MICHIGAN COASTAL AND OPEN LAKE BUOY OBSERVATIONS

STATION/POSITION TEMP    WIND        PRES    VSBY  WAVE
                 AIR SEA DIR/SP/G                  HT/PER
                 (F)     (DEG/KT/KT) (MB)    (MI)  (FT/S)
CALUMET HARBOR    76      90/  5/  7 1013.8R
MICHIGAN CITY     77     340/  6/  6   N/A
BURNS HARBOR      76      60/  9/ 11 1014.9S
SAINT JOSEPH      74      CALM  /  1 1015.2R
SOUTH LAKE BUOY   76 76  120/  8/  8 1013.1          1
4 MI NW BRIDGMAN  78 79  110/  6/  8 1013.8S         1
MICHIGAN CITY     77 77   10/  6/  8   N/A           1

$$
&&




USA.gov is the U.S. government's official web portal to all federal, state and local government web resources and services.